�������l�o���
Date,Time,MP-1(��Sv/h),MP-2(��Sv/h),MP-3(��Sv/h),MP-4(��Sv/h),MP-5(��Sv/h),MP-6(��Sv/h),MP-7(��Sv/h),MP-8(��Sv/h),����,����(m/s),���J
2023/09/14,00:00,0.531,0.808,0.492,0.988,0.708,0.323,0.572,0.532,-,CALM,��
2023/09/14,00:10,0.532,0.806,0.492,0.987,0.705,0.324,0.571,0.531,��,0.6,��
2023/09/14,00:20,0.533,0.806,0.491,0.986,0.705,0.324,0.572,0.530,-,CALM,��
2023/09/14,00:30,0.531,0.806,0.492,0.988,0.706,0.323,0.571,0.532,�쐼,0.6,��
2023/09/14,00:40,0.532,0.805,0.491,0.988,0.706,0.323,0.573,0.531,��,0.9,��
2023/09/14,00:50,0.530,0.806,0.491,0.989,0.706,0.324,0.571,0.531,��,0.8,��
2023/09/14,01:00,0.531,0.806,0.491,0.989,0.707,0.323,0.572,0.531,��,0.6,��
2023/09/14,01:10,0.531,0.803,0.492,0.989,0.705,0.324,0.572,0.531,�쐼,0.9,��
2023/09/14,01:20,0.532,0.805,0.492,0.987,0.706,0.323,0.571,0.530,��쐼,0.9,��
2023/09/14,01:30,0.531,0.804,0.492,0.988,0.706,0.323,0.572,0.532,-,CALM,��
2023/09/14,01:40,0.531,0.806,0.491,0.987,0.706,0.324,0.572,0.531,�쓌,1.1,��
2023/09/14,01:50,0.531,0.805,0.492,0.987,0.707,0.324,0.572,0.531,�쐼,1.2,��
2023/09/14,02:00,0.532,0.806,0.491,0.986,0.707,0.323,0.572,0.530,��쐼,0.6,��
2023/09/14,02:10,0.530,0.805,0.492,0.988,0.705,0.324,0.571,0.531,-,CALM,��
2023/09/14,02:20,0.529,0.805,0.491,0.989,0.705,0.323,0.573,0.531,��쐼,0.6,��
2023/09/14,02:30,0.530,0.806,0.491,0.989,0.706,0.322,0.573,0.531,�쓌,0.6,��
2023/09/14,02:40,0.530,0.806,0.490,0.987,0.704,0.324,0.572,0.531,��쓌,0.6,��
2023/09/14,02:50,0.530,0.806,0.491,0.990,0.705,0.323,0.571,0.529,��,0.8,��
2023/09/14,03:00,0.532,0.807,0.490,0.988,0.704,0.324,0.572,0.530,��쓌,1.2,��
2023/09/14,03:10,0.532,0.803,0.490,0.989,0.705,0.323,0.572,0.532,��쓌,1.7,��
2023/09/14,03:20,0.531,0.804,0.490,0.989,0.702,0.324,0.574,0.531,��쓌,1.7,��
2023/09/14,03:30,0.531,0.804,0.491,0.988,0.707,0.324,0.574,0.531,��쓌,2.0,��
2023/09/14,03:40,0.531,0.804,0.491,0.988,0.707,0.323,0.574,0.531,��쓌,2.0,��
2023/09/14,03:50,0.530,0.805,0.491,0.986,0.705,0.323,0.575,0.532,��쓌,1.7,��
2023/09/14,04:00,0.530,0.804,0.491,0.988,0.704,0.323,0.572,0.530,��쐼,0.6,��
2023/09/14,04:10,0.530,0.803,0.492,0.989,0.704,0.324,0.574,0.530,���쐼,0.6,��
2023/09/14,04:20,0.531,0.807,0.491,0.988,0.706,0.323,0.574,0.531,���k��,1.2,��
2023/09/14,04:30,0.530,0.803,0.490,0.989,0.705,0.322,0.574,0.530,��,0.8,��
2023/09/14,04:40,0.531,0.807,0.490,0.986,0.705,0.322,0.574,0.533,-,CALM,��
2023/09/14,04:50,0.531,0.804,0.492,0.987,0.706,0.323,0.573,0.532,��쓌,1.1,��
2023/09/14,05:00,0.532,0.805,0.491,0.986,0.705,0.322,0.574,0.532,��쓌,1.1,��
2023/09/14,05:10,0.531,0.805,0.491,0.988,0.705,0.323,0.574,0.531,���쓌,0.8,��
2023/09/14,05:20,0.531,0.805,0.489,0.987,0.706,0.323,0.574,0.532,��,0.6,��
2023/09/14,05:30,0.529,0.805,0.491,0.987,0.705,0.325,0.573,0.532,���k��,0.8,��
2023/09/14,05:40,0.531,0.805,0.492,0.987,0.705,0.323,0.573,0.532,�쓌,0.9,��
2023/09/14,05:50,0.531,0.804,0.489,0.987,0.706,0.323,0.573,0.531,��쓌,1.5,��
2023/09/14,06:00,0.532,0.804,0.492,0.989,0.705,0.324,0.576,0.530,�쓌,0.8,��
2023/09/14,06:10,0.530,0.805,0.490,0.989,0.704,0.323,0.576,0.532,���쓌,0.9,��
2023/09/14,06:20,0.531,0.805,0.490,0.988,0.706,0.321,0.574,0.533,��쓌,1.2,��
2023/09/14,06:30,0.530,0.805,0.491,0.987,0.706,0.324,0.573,0.532,��쓌,1.4,��
2023/09/14,06:40,0.530,0.805,0.490,0.989,0.706,0.323,0.573,0.531,��쐼,0.9,��
2023/09/14,06:50,0.530,0.806,0.491,0.989,0.703,0.322,0.574,0.532,��쐼,0.6,��
2023/09/14,07:00,0.533,0.804,0.489,0.987,0.703,0.322,0.576,0.532,��쓌,1.1,��
2023/09/14,07:10,0.531,0.802,0.489,0.988,0.706,0.322,0.574,0.533,��쓌,2.2,��
2023/09/14,07:20,0.531,0.803,0.492,0.988,0.705,0.324,0.575,0.533,��,1.4,��
2023/09/14,07:30,0.530,0.805,0.490,0.988,0.705,0.323,0.575,0.532,��쓌,1.5,��
2023/09/14,07:40,0.531,0.805,0.491,0.988,0.705,0.322,0.573,0.532,��쓌,1.4,��
2023/09/14,07:50,0.531,0.803,0.490,0.988,0.704,0.321,0.575,0.532,��,2.5,��
2023/09/14,08:00,0.531,0.804,0.491,0.990,0.703,0.322,0.575,0.534,��쓌,2.6,��
2023/09/14,08:10,0.529,0.803,0.489,0.987,0.704,0.322,0.576,0.531,��쓌,3.1,��
2023/09/14,08:20,0.530,0.805,0.490,0.989,0.705,0.323,0.574,0.533,��쓌,3.5,��
2023/09/14,08:30,0.531,0.803,0.489,0.989,0.703,0.320,0.574,0.532,��쓌,4.2,��
2023/09/14,08:40,0.530,0.802,0.490,0.989,0.702,0.322,0.572,0.532,��쓌,4.7,��
2023/09/14,08:50,0.531,0.803,0.491,0.988,0.703,0.320,0.575,0.530,��쓌,4.6,��
2023/09/14,09:00,0.530,0.802,0.489,0.987,0.704,0.322,0.570,0.531,��쓌,4.4,��
2023/09/14,09:10,0.532,0.804,0.490,0.987,0.703,0.321,0.573,0.529,��쓌,4.1,��
2023/09/14,09:20,0.532,0.803,0.490,0.988,0.703,0.322,0.573,0.529,��쓌,4.1,��
2023/09/14,09:30,0.531,0.804,0.489,0.989,0.704,0.321,0.572,0.533,��쓌,3.6,��
2023/09/14,09:40,0.532,0.805,0.490,0.985,0.704,0.322,0.573,0.532,��쓌,3.4,��
2023/09/14,09:50,0.532,0.804,0.491,0.988,0.705,0.321,0.573,0.531,�쓌,4.4,��
2023/09/14,10:00,0.532,0.804,0.490,0.990,0.705,0.323,0.574,0.532,�쓌,4.8,��
2023/09/14,10:10,0.533,0.803,0.489,0.988,0.704,0.322,0.572,0.532,��쓌,4.8,��
2023/09/14,10:20,0.532,0.801,0.491,0.989,0.705,0.320,0.574,0.531,��쓌,4.5,��
2023/09/14,10:30,0.532,0.805,0.491,0.989,0.704,0.323,0.574,0.532,��쓌,4.9,��
2023/09/14,10:40,0.533,0.803,0.489,0.989,0.706,0.322,0.573,0.530,��쓌,5.6,��
2023/09/14,10:50,0.532,0.804,0.491,0.988,0.706,0.323,0.574,0.531,��쓌,6.5,��
2023/09/14,11:00,0.531,0.803,0.490,0.988,0.705,0.321,0.573,0.531,��쓌,7.3,��
2023/09/14,11:10,0.532,0.803,0.490,0.990,0.705,0.322,0.572,0.533,��쓌,7.9,��
2023/09/14,11:20,0.532,0.803,0.490,0.987,0.706,0.322,0.574,0.531,��쓌,8.5,��
2023/09/14,11:30,0.530,0.803,0.489,0.988,0.704,0.322,0.574,0.531,��쓌,9.2,��
2023/09/14,11:40,0.532,0.804,0.491,0.987,0.707,0.321,0.575,0.531,��쓌,9.3,��
2023/09/14,11:50,0.531,0.806,0.491,0.986,0.707,0.323,0.574,0.531,��,8.3,��
2023/09/14,12:00,0.534,0.802,0.491,0.988,0.706,0.323,0.574,0.532,��쓌,10.2,��
2023/09/14,12:10,0.533,0.804,0.491,0.987,0.706,0.324,0.574,0.532,��쓌,9.7,��
2023/09/14,12:20,0.533,0.802,0.491,0.989,0.709,0.323,0.574,0.531,��,11.1,��
2023/09/14,12:30,0.533,0.806,0.491,0.987,0.707,0.321,0.574,0.531,��쓌,8.4,��
2023/09/14,12:40,0.531,0.807,0.490,0.989,0.708,0.323,0.574,0.532,��쓌,9.6,��
2023/09/14,12:50,0.533,0.807,0.491,0.989,0.708,0.325,0.571,0.531,��,7.7,��
2023/09/14,13:00,0.532,0.808,0.492,0.987,0.706,0.323,0.572,0.532,��쓌,9.4,��
2023/09/14,13:10,0.531,0.806,0.491,0.991,0.708,0.324,0.572,0.532,��쓌,9.8,��
2023/09/14,13:20,0.533,0.806,0.491,0.990,0.710,0.325,0.572,0.531,��쓌,9.6,��
2023/09/14,13:30,0.530,0.805,0.492,0.992,0.708,0.324,0.574,0.532,��쓌,9.5,��
2023/09/14,13:40,0.531,0.808,0.491,0.990,0.708,0.325,0.573,0.531,��쓌,8.8,��
2023/09/14,13:50,0.531,0.805,0.491,0.989,0.710,0.324,0.574,0.532,��쓌,10.5,��
2023/09/14,14:00,0.532,0.807,0.491,0.990,0.708,0.324,0.573,0.533,��,7.9,��
2023/09/14,14:10,0.532,0.804,0.492,0.993,0.710,0.323,0.572,0.534,��쓌,7.6,��
2023/09/14,14:20,0.533,0.806,0.492,0.989,0.709,0.323,0.574,0.533,��,7.2,��
2023/09/14,14:30,0.532,0.806,0.491,0.992,0.709,0.323,0.574,0.533,��,7.2,��
2023/09/14,14:40,0.532,0.805,0.492,0.991,0.708,0.323,0.572,0.533,��,6.3,��
2023/09/14,14:50,0.532,0.804,0.491,0.993,0.707,0.323,0.573,0.534,��쓌,8.5,��
2023/09/14,15:00,0.534,0.808,0.491,0.992,0.708,0.324,0.572,0.535,��쓌,7.8,��
2023/09/14,15:10,0.535,0.807,0.492,0.991,0.708,0.324,0.573,0.533,��,7.7,��
2023/09/14,15:20,0.532,0.808,0.491,0.991,0.710,0.323,0.574,0.533,��,8.1,��
2023/09/14,15:30,0.533,0.809,0.490,0.991,0.708,0.324,0.573,0.533,��,8.3,��
2023/09/14,15:40,0.533,0.808,0.490,0.992,0.710,0.324,0.574,0.530,��,8.9,��
2023/09/14,15:50,0.532,0.809,0.491,0.992,0.709,0.323,0.573,0.530,��,8.4,��
2023/09/14,16:00,0.533,0.809,0.492,0.991,0.709,0.323,0.573,0.532,��,7.9,��
2023/09/14,16:10,0.533,0.809,0.493,0.991,0.709,0.324,0.572,0.532,��,6.7,��
2023/09/14,16:20,0.532,0.808,0.491,0.992,0.709,0.323,0.573,0.533,��,5.4,��
2023/09/14,16:30,0.533,0.807,0.493,0.993,0.710,0.323,0.573,0.532,��,3.7,��
2023/09/14,16:40,0.533,0.810,0.493,0.994,0.709,0.322,0.573,0.533,��,3.7,��
2023/09/14,16:50,0.534,0.808,0.493,0.995,0.710,0.324,0.573,0.532,��,4.4,��
2023/09/14,17:00,0.532,0.808,0.492,0.993,0.710,0.322,0.572,0.534,��,4.3,��
2023/09/14,17:10,0.532,0.809,0.493,0.993,0.709,0.323,0.573,0.532,��,3.4,��
2023/09/14,17:20,0.533,0.808,0.493,0.992,0.709,0.322,0.574,0.532,��쐼,2.6,��
2023/09/14,17:30,0.533,0.810,0.490,0.991,0.707,0.323,0.574,0.532,��,1.9,��
2023/09/14,17:40,0.535,0.810,0.494,0.991,0.710,0.323,0.572,0.534,�쐼,1.4,��
2023/09/14,17:50,0.532,0.809,0.492,0.990,0.709,0.324,0.573,0.532,�쐼,2.0,��
2023/09/14,18:00,0.534,0.809,0.493,0.991,0.710,0.324,0.573,0.532,��,2.3,��
2023/09/14,18:10,0.533,0.809,0.492,0.990,0.708,0.323,0.572,0.531,��쐼,2.2,��
2023/09/14,18:20,0.534,0.809,0.491,0.990,0.710,0.324,0.572,0.534,��쐼,2.9,��
2023/09/14,18:30,0.534,0.808,0.492,0.992,0.710,0.322,0.573,0.533,��쐼,2.7,��
2023/09/14,18:40,0.535,0.809,0.493,0.992,0.711,0.324,0.573,0.532,��쐼,3.0,��
2023/09/14,18:50,0.534,0.810,0.492,0.991,0.711,0.323,0.573,0.535,��쐼,3.1,��
2023/09/14,19:00,0.534,0.807,0.492,0.991,0.711,0.326,0.575,0.531,�쐼,2.8,��
2023/09/14,19:10,0.535,0.809,0.493,0.992,0.710,0.325,0.573,0.532,�쐼,2.6,��
2023/09/14,19:20,0.536,0.811,0.494,0.994,0.711,0.325,0.574,0.532,��쐼,3.0,��
2023/09/14,19:30,0.536,0.811,0.494,0.994,0.710,0.325,0.573,0.533,�쐼,2.7,��
2023/09/14,19:40,0.535,0.812,0.494,0.993,0.711,0.325,0.574,0.532,��쐼,3.1,��
2023/09/14,19:50,0.535,0.811,0.494,0.996,0.713,0.326,0.575,0.533,�쐼,2.6,��
2023/09/14,20:00,0.535,0.811,0.495,0.994,0.713,0.324,0.574,0.534,���쐼,0.9,��
2023/09/14,20:10,0.535,0.812,0.494,0.995,0.712,0.325,0.572,0.534,���k��,1.7,��
2023/09/14,20:20,0.535,0.811,0.496,0.993,0.712,0.327,0.573,0.534,�k��,1.5,��
2023/09/14,20:30,0.537,0.810,0.494,0.992,0.711,0.324,0.574,0.534,�k��,1.1,��
2023/09/14,20:40,0.535,0.813,0.493,0.994,0.711,0.324,0.574,0.533,�k��,1.5,��
2023/09/14,20:50,0.534,0.810,0.495,0.993,0.713,0.326,0.574,0.533,���k��,0.9,��
2023/09/14,21:00,0.537,0.810,0.495,0.995,0.712,0.326,0.575,0.534,�쐼,1.2,��
2023/09/14,21:10,0.535,0.811,0.494,0.992,0.711,0.327,0.574,0.534,�쐼,1.5,��
2023/09/14,21:20,0.535,0.812,0.495,0.992,0.711,0.326,0.574,0.532,�쐼,0.9,��
2023/09/14,21:30,0.536,0.812,0.493,0.993,0.711,0.326,0.575,0.533,���쐼,1.7,��
2023/09/14,21:40,0.535,0.812,0.495,0.994,0.711,0.326,0.574,0.533,���쐼,3.4,��
2023/09/14,21:50,0.535,0.810,0.493,0.994,0.714,0.325,0.573,0.534,��,3.3,��
2023/09/14,22:00,0.535,0.812,0.494,0.992,0.712,0.325,0.573,0.534,��,3.6,��
2023/09/14,22:10,0.534,0.811,0.492,0.992,0.712,0.326,0.574,0.534,��,2.3,��
2023/09/14,22:20,0.534,0.811,0.494,0.992,0.712,0.326,0.574,0.533,��,2.6,��
2023/09/14,22:30,0.536,0.810,0.494,0.994,0.712,0.325,0.575,0.533,��,3.0,��
2023/09/14,22:40,0.535,0.810,0.493,0.993,0.712,0.325,0.573,0.533,���k��,2.6,��
2023/09/14,22:50,0.535,0.812,0.496,0.994,0.710,0.326,0.573,0.534,��,2.8,��
2023/09/14,23:00,0.533,0.808,0.494,0.995,0.710,0.325,0.573,0.533,���k��,2.9,��
2023/09/14,23:10,0.535,0.810,0.493,0.995,0.711,0.326,0.574,0.533,��,3.7,��
2023/09/14,23:20,0.534,0.811,0.492,0.994,0.711,0.326,0.575,0.533,��,3.2,��
2023/09/14,23:30,0.534,0.811,0.494,0.995,0.713,0.324,0.573,0.533,��,3.0,��
2023/09/14,23:40,0.535,0.809,0.493,0.993,0.711,0.325,0.572,0.533,��,2.0,��
2023/09/14,23:50,0.535,0.808,0.493,0.992,0.710,0.327,0.573,0.534,���k��,3.1,��
